Home   Weather   Dorsten   Past weeks

Flag for Germany Past Weather in Dorsten, North Rhine-Westphalia, Germany — Yesterday and Last 2 Weeks

Now
52 °F

Partly sunny.


Feels Like: 48 °F
Forecast: 40 / 47 °F
Wind: 10 mph from South

Location: Duesseldorf

Current Time: Dec 9, 2016 at 4:49:03 pm

Latest Report: Dec 9, 2016 at 4:20 pm


Visibility: N/A

Pressure: 30.36 "Hg

Humidity: 77%

Dew Point: 45 °F

Location of DorstenLocation

Past Weather in Dorsten — Graph

°F

Dorsten Temperature Yesterday

Maximum temperature yesterday: 48 °F (at 1:20 pm)
Minimum temperature yesterday: 39 °F (at 2:50 am)
Average temperature yesterday: 43 °F

High & Low Weather Summary for the Past Weeks

 TemperatureHumidityPressure
High52 °F (Dec 9, 1:50 pm)100% (Nov 26, 8:50 pm)30.60 "Hg (Nov 26, 8:50 pm)
Low18 °F (Dec 4, 7:50 am)45% (Nov 29, 2:50 pm)30.07 "Hg (Nov 26, 1:50 pm)
Average37 °F83%30.32 "Hg
* Reported Nov 24 3:20 pm — Dec 9 3:20 pm, Dorsten, Weather by CustomWeather, © 2016

Note: Actual official high and low records may vary slightly from our data, if they occured in-between our weather recording intervals... More about our weather records

Advertising

Dorsten Weather History for the Previous 24 Hours

Scroll right to see more
 ConditionsComfort  
Time TempWeatherWind HumidityBarometerVisibility
3:20 pm
Fri, Dec 9
52 °FPartly sunny.8 mph77%30.36 "HgN/A
2:50 pm52 °FPartly sunny.9 mph77%30.36 "HgN/A
2:20 pm52 °FPartly sunny.9 mph77%30.36 "HgN/A
1:50 pm52 °FPartly sunny.8 mph77%30.36 "HgN/A
1:20 pm50 °FBroken clouds.9 mph82%30.36 "HgN/A
12:50 pm50 °FPartly sunny.9 mph82%30.39 "HgN/A
12:20 pm50 °FLight rain. Partly sunny.9 mph88%30.39 "Hg6 mi
11:50 am50 °FBroken clouds.7 mph88%30.39 "Hg5 mi
11:20 am48 °FPartly sunny.7 mph94%30.39 "Hg4 mi
10:50 am48 °FPartly sunny.8 mph94%30.39 "Hg4 mi
10:20 am48 °FPartly sunny.8 mph87%30.39 "Hg5 mi
9:50 am48 °FPartly sunny.8 mph87%30.39 "Hg6 mi
9:20 am48 °FPartly sunny.12 mph87%30.39 "HgN/A
8:50 am46 °FPartly sunny.9 mph93%30.39 "Hg6 mi
8:20 am46 °FPassing clouds.10 mph93%30.39 "Hg6 mi
7:50 am46 °FPassing clouds.9 mph87%30.36 "HgN/A
7:20 am46 °FPassing clouds.9 mph87%30.36 "HgN/A
6:50 am46 °FPassing clouds.9 mph87%30.36 "HgN/A
6:20 am46 °FPassing clouds.10 mph87%30.36 "HgN/A
5:20 am48 °FPassing clouds.13 mph82%30.36 "HgN/A
4:50 am46 °FPassing clouds.12 mph87%30.36 "HgN/A
4:20 am46 °FPartly cloudy.10 mph87%30.36 "HgN/A
3:50 am46 °FPassing clouds.12 mph87%30.36 "HgN/A
3:20 am46 °FPassing clouds.15 mph87%30.36 "HgN/A
2:50 am46 °FPassing clouds.10 mph87%30.36 "HgN/A
2:20 am45 °FPassing clouds.8 mph87%30.36 "HgN/A
1:50 am45 °FPassing clouds.8 mph87%30.36 "HgN/A
1:20 am45 °FPartly cloudy.10 mph87%30.36 "HgN/A
12:50 am45 °FPassing clouds.10 mph87%30.36 "HgN/A
12:20 am45 °FPassing clouds.9 mph87%30.36 "HgN/A
11:50 pm
Thu, Dec 8
43 °FPassing clouds.9 mph87%30.36 "HgN/A
11:20 pm43 °FLight rain. Passing clouds.13 mph87%30.36 "HgN/A
10:50 pm43 °FPassing clouds.10 mph81%30.36 "HgN/A
10:20 pm43 °FPassing clouds.10 mph76%30.36 "HgN/A
9:50 pm43 °FLight rain. Partly cloudy.8 mph76%30.36 "HgN/A
9:20 pm43 °FLight rain. Partly cloudy.13 mph71%30.36 "HgN/A
8:50 pm43 °FPartly cloudy.14 mph71%30.36 "HgN/A
8:20 pm43 °FPassing clouds.10 mph71%30.36 "HgN/A
7:50 pm43 °FClear.12 mph71%30.33 "Hg10 mi
7:20 pm43 °FClear.14 mph71%30.33 "Hg10 mi
6:50 pm43 °FClear.10 mph71%30.36 "Hg10 mi
6:20 pm43 °FClear.14 mph71%30.33 "Hg10 mi
5:50 pm43 °FClear.13 mph76%30.33 "Hg10 mi
5:20 pm43 °FClear.13 mph71%30.33 "Hg10 mi
4:50 pm45 °FClear.14 mph66%30.33 "Hg10 mi
4:20 pm45 °FSunny.10 mph66%30.36 "Hg10 mi
Weather by CustomWeather, © 2016

See weather overviewHow to use our weather pages